Location: Condor
(52.3263°N, 114.5541°W)
Time: 14:00:26
(UTC+00:00)

ITUPSAT 1 - Visible Passes

Search period start: 01 December 2023 00:00
Search period end: 11 December 2023 00:00
Orbit: 697 x 707 km, 98.5° (Epoch: 01 December)

Date Brightness Start Highest point End Pass type
(mag) Time Alt. Az. Time Alt. Az. Time Alt. Az.
02 Dec ? 14:32:18 10° E 14:35:14 16° NE 14:38:10 10° NNE visible
04 Dec ? 14:20:51 10° E 14:23:09 13° NE 14:25:26 10° NNE visible
06 Dec ? 14:09:44 10° ENE 14:11:03 11° NE 14:12:23 10° NNE visible
07 Dec ? 14:49:37 10° ESE 14:53:11 21° ENE 14:56:45 10° N visible
09 Dec ? 14:37:54 10° E 14:41:01 18° NE 14:44:09 10° NNE visible
